User: anonymous   Login
Location: Unspecified
(0.0000°N, 0.0000°E)
Time: 21:31:31
(UTC+00:00)
Language:

SURFSAT - Orbit

View from above orbital plane
View from above orbital plane
View from above satellite
View from above satellite

Ground track
Ground track

The orbit data is extracted from the following two-line orbital elements,

1 43614U 18070B   19046.75953865 +.00002400 +00000-0 +66318-4 0  9996
2 43614 093.0388 312.8843 0019053 064.3016 296.0202 15.36945997023529
Epoch (UTC): 15 February 2019 18:13:44
Eccentricity: 0.0019053
inclination: 93.0388°
perigee height: 442 km
apogee height: 468 km
right ascension of ascending node: 312.8843°
argument of perigee: 64.3016°
revolutions per day: 15.36945997
mean anomaly at epoch: 296.0202°
orbit number at epoch: 2352

The dashed part of the orbit path shows where the satellite is in the earth's shadow,  

DLR